Weather History for KHYA - January, 2014

Change the Weather History Date:

Tuesday, January 14, 2014

  Actual Average Record
Temperature  
Mean Temperature 48 °F -  
Max Temperature 52 °F 37 °F 65 °F (1932)
Min Temperature 45 °F 18 °F -4 °F (1954)
Degree Days  
Heating Degree Days 16    
Moisture  
Dew Point 46 °F    
Average Humidity 95    
Maximum Humidity 100    
Minimum Humidity 89    
Precipitation  
Precipitation 0.81 in - - ()
Sea Level Pressure  
Sea Level Pressure 29.73 in    
Wind  
Wind Speed 10 mph (SW)    
Max Wind Speed 14 mph    
Max Gust Speed 23 mph    
Visibility 6 miles    
Events Fog , Rain    
Averages and records for this station are not official NWS values.
T = Trace of Precipitation, MM = Missing Value Source: NWS Daily Summary

Daily Weather History Graph

Daily Weather History Graph

Search for Another Location

Airport or City:

Trip Planner

Search our weather history database for the weather conditions in past years. The results will help you decide how hot, cold, wet, or windy it might be!

Date:

Astronomy

Jan. 14, 2014 Rise Set
Actual Time 7:06 AM EST 4:34 PM EST
Civil Twilight 6:35 AM EST 5:05 PM EST
Nautical Twilight 6:01 AM EST 5:39 PM EST
Astronomical Twilight 5:27 AM EST 6:13 PM EST
Moon 3:37 PM EST (1/14) 5:38 AM EST (1/14)
Length of Visible Light 10h 29m
Length of Day
9h 28m
Waxing Gibbous, 98% of the Moon is Illuminated
Jan 14
Waxing Gibbous
Jan 15
Full
Jan 24
Last Quarter
Jan 30
New
Feb 6
First Quarter

Hourly Weather History & Observations

Time (EST) Temp. Windchill Dew Point Humidity Pressure Visibility Wind Dir Wind Speed Gust Speed Precip Events Conditions
12:56 AM 45.0 °F 38.5 °F 42.1 °F 90% 29.93 in 9.0 mi South 13.8 mph 23.0 mph N/A   Mostly Cloudy
1:56 AM 46.0 °F 40.6 °F 43.0 °F 89% 29.94 in 9.0 mi SSW 11.5 mph 18.4 mph N/A   Mostly Cloudy
2:56 AM 45.0 °F 40.1 °F 42.1 °F 90% 29.92 in 8.0 mi SSW 9.2 mph - N/A   Mostly Cloudy
3:56 AM 45.0 °F 40.1 °F 42.1 °F 90% 29.90 in 8.0 mi South 9.2 mph 18.4 mph N/A   Clear
4:56 AM 45.0 °F 40.1 °F 43.0 °F 93% 29.89 in 7.0 mi SSW 9.2 mph - N/A   Partly Cloudy
5:56 AM 45.0 °F 39.3 °F 43.0 °F 93% 29.89 in 7.0 mi SSW 11.5 mph - N/A   Clear
6:56 AM 45.0 °F 39.7 °F 42.1 °F 90% 29.89 in 9.0 mi SSW 10.4 mph - N/A   Clear
7:56 AM 45.0 °F 39.7 °F 43.0 °F 93% 29.89 in 7.0 mi SSW 10.4 mph - N/A   Clear
8:56 AM 46.0 °F 40.2 °F 44.1 °F 93% 29.90 in 7.0 mi South 12.7 mph 20.7 mph N/A   Mostly Cloudy
9:40 AM 46.0 °F 41.0 °F 44.1 °F 93% 29.88 in 7.0 mi South 10.4 mph - N/A   Mostly Cloudy
9:56 AM 46.9 °F - 45.0 °F 93% 29.88 in 7.0 mi SSW 9.2 mph - N/A   Mostly Cloudy
10:20 AM 48.0 °F - 46.0 °F 93% 29.87 in 4.0 mi SSW 9.2 mph 19.6 mph N/A   Overcast
10:43 AM 48.0 °F - 46.0 °F 93% 29.85 in 2.0 mi SSW 8.1 mph - N/A   Overcast
10:56 AM 48.0 °F - 46.9 °F 96% 29.84 in 1.5 mi SSW 8.1 mph - 0.00 in   Overcast
11:35 AM 46.9 °F - 46.0 °F 97% 29.80 in 0.5 mi South 5.8 mph - 0.01 in Fog , Rain Light Rain
11:56 AM 46.9 °F - 46.0 °F 97% 29.80 in 0.5 mi SSW 6.9 mph - 0.02 in Fog , Rain Light Rain
12:56 PM 50.0 °F - 48.9 °F 96% 29.76 in 1.0 mi South 13.8 mph 19.6 mph 0.09 in Rain Light Rain
1:56 PM 51.1 °F - 50.0 °F 96% 29.73 in 1.0 mi South 11.5 mph 23.0 mph 0.06 in Rain Light Rain
2:56 PM 50.0 °F - 50.0 °F 100% 29.70 in 1.0 mi South 9.2 mph 23.0 mph 0.10 in Rain Light Rain
3:54 PM 51.8 °F - 50.0 °F 94% 29.67 in 0.5 mi South 11.5 mph 19.6 mph 0.04 in Fog , Rain Light Rain
3:56 PM 51.1 °F - 50.0 °F 96% 29.68 in 0.5 mi South 11.5 mph 19.6 mph 0.04 in Fog , Rain Rain
4:20 PM 52.0 °F - 51.1 °F 97% 29.67 in 1.2 mi South 12.7 mph 21.9 mph 0.04 in Rain Light Rain
4:56 PM 51.1 °F - 50.0 °F 96% 29.64 in 1.5 mi SSW 11.5 mph - 0.08 in Rain Light Rain
5:56 PM 50.0 °F - 48.9 °F 96% 29.61 in 1.5 mi South 11.5 mph 21.9 mph 0.15 in Rain Rain
6:34 PM 50.0 °F - 50.0 °F 100% 29.59 in 2.0 mi South 10.4 mph 18.4 mph 0.10 in Rain Rain
6:56 PM 51.1 °F - 50.0 °F 96% 29.58 in 3.0 mi South 9.2 mph 18.4 mph 0.15 in Rain Rain
7:06 PM 51.1 °F - 50.0 °F 96% 29.57 in 2.5 mi South 11.5 mph 18.4 mph 0.02 in Rain Rain
7:22 PM 48.0 °F - 46.9 °F 96% 29.58 in 1.5 mi South 13.8 mph - 0.04 in Rain Light Rain
7:56 PM 48.0 °F - 46.9 °F 96% 29.60 in 3.0 mi SW 10.4 mph 21.9 mph 0.07 in Rain Rain
8:05 PM 48.0 °F - 46.9 °F 96% 29.59 in 5.0 mi SW 9.2 mph - 0.01 in Rain Light Rain
8:15 PM 48.9 °F - 48.0 °F 97% 29.59 in 9.0 mi SW 8.1 mph - 0.01 in Rain Light Rain
8:56 PM 50.0 °F - 50.0 °F 100% 29.62 in 5.0 mi WNW 6.9 mph - 0.04 in Rain Light Rain
9:04 PM 48.9 °F - 48.0 °F 97% 29.62 in 8.0 mi NW 11.5 mph 19.6 mph 0.01 in Rain Light Rain
9:28 PM 46.9 °F - 46.0 °F 97% 29.61 in 10.0 mi NNW 8.1 mph - 0.01 in   Overcast
9:37 PM 46.9 °F - 46.0 °F 97% 29.61 in 10.0 mi NNW 8.1 mph - 0.01 in   Overcast
9:56 PM 46.0 °F 42.5 °F 45.0 °F 96% 29.61 in 10.0 mi North 6.9 mph - 0.01 in   Mostly Cloudy
10:26 PM 46.0 °F 43.1 °F 45.0 °F 96% 29.65 in 10.0 mi West 5.8 mph - N/A   Overcast
10:44 PM 46.9 °F - 45.0 °F 93% 29.68 in 10.0 mi West 8.1 mph - N/A   Overcast
10:52 PM 46.4 °F 42.4 °F 44.6 °F 93% 29.68 in 10.0 mi West 8.1 mph - N/A   Overcast
10:56 PM 46.9 °F - 45.0 °F 93% 29.69 in 10.0 mi West 8.1 mph - N/A   Overcast
11:45 PM 46.0 °F 41.0 °F 43.0 °F 89% 29.73 in 10.0 mi WNW 10.4 mph - N/A   Overcast
11:56 PM 46.0 °F 41.0 °F 43.0 °F 89% 29.74 in 10.0 mi WNW 10.4 mph 18.4 mph N/A   Mostly Cloudy